Regional Weather Roundup
Issued by NWS

Home | Current Version | Previous Version | Text Only | Print | Product List | Glossary Off
Versions: 1 2 3 4 5 6 7 8 9 10 11 12 13 14 15 16 17 18 19 20 21 22 23 24 25 26 27 28 29 30 31 32 33 34 35 36 37 38 39 40 41 42 43 44 45 46 47 48 49 50

000
ASUS43 KLOT 191308
RWRIL

ILLINOIS REGIONAL WEATHER ROUNDUP
NATIONAL WEATHER SERVICE CHICAGO/ROMEOVILLE IL
800 AM CDT TUE SEP 19 2017

NOTE: "FAIR" INDICATES FEW OR NO CLOUDS BELOW 12,000 FEET WITH NO
SIGNIFICANT WEATHER AND/OR OBSTRUCTIONS TO VISIBILITY.

* THESE STATIONS ARE NOT UNDER NWS QUALITY CONTROL. THEY ALSO MAY NOT
  REPORT WEATHER SUCH AS PRECIPITATION OR FOG.

ILZ001-002-007-009-015-016-024-191400-
NORTHWEST ILLINOIS

CITY           SKY/WX    TMP DP  RH WIND       PRES   REMARKS
MOLINE         FOG       63  61  93 E5        29.95S VSB 1/4
STERLING*        N/A     62  61  96 NE6       29.97S
SAVANNA*       PTSUNNY   60  59  97 NE3       29.96S
$$

ILZ003-004-008-010-011-017-018-191400-
NORTH CENTRAL ILLINOIS

CITY           SKY/WX    TMP DP  RH WIND       PRES   REMARKS
ROCKFORD       MOSUNNY   63  60  90 CALM      29.97S
FREEPORT*      CLOUDY    60  59  99 CALM      29.99S
ROCHELLE*      CLOUDY    61  61  99 CALM      29.98S FOG
DE KALB*       PTSUNNY   63  63  98 NE5       29.97R FOG
PERU*          CLOUDY    62  60  94 CALM      29.97R FOG
$$

ILZ005-006-012>014-019>023-191400-
NORTHEAST ILLINOIS

CITY           SKY/WX    TMP DP  RH WIND       PRES   REMARKS
CHICAGO-OHARE  PTSUNNY   67  64  90 N5        29.95R
CHICAGO-MIDWAY PTSUNNY   68  65  90 NE6       29.94S FOG
AURORA         CLOUDY    64  63  96 NE5       29.96F FOG
LANSING*       CLOUDY    65  65 100 CALM      29.96R FOG
JOLIET*        MOSUNNY   65  65 100 CALM      29.96R FOG
WAUKEGAN       LGT RAIN  65  65 100 CALM      29.95S FOG
DUPAGE AIRPORT PTSUNNY   64  64 100 NW3       29.95R FOG
KANKAKEE*      CLOUDY    63  62  97 CALM      29.96R FOG
WHEELING       CLOUDY    67  66  97 N3        29.96S
MORRIS*        SUNNY     62  61  97 CALM      29.95S FOG
ROMEOVILLE*    PTSUNNY   64  64 100 CALM      29.96R FOG
NORTHERLY ISL    N/A     67  64  90 NE3         N/A
$$

LMZ740>746-191400-
SOUTHERN LAKE MICHIGAN

STATION/POSITION SKY/WX   TEMP    WIND        PRES    VSBY  WAVE
                          AIR SEA DIR/SP/G                  HT/PER
                          (F)     (DEG/KT/KT) (MB)    (MI)  (FT/S)
SOUTHERN BUOY              67 68   80/ 12/ 14 1014.7R         2/ 4
WILMETTE HARBOR            68 69   30/  4/  6   N/A           2/ 5
HARRISON CRIB              68      70/  8/  9   N/A
CALUMET HARBOR             67     350/  4/  5 1013.6R
BURNS HARBOR               67      20/  2/  3 1014.6R
MICHIGAN CITY              67      CALM  /  1   N/A
MICHIGAN CITY 6N           67 68   30/  2/  2   N/A           1/ 4
ST. JOSEPH                 67 68   70/  6/  8 1014.1          1
$$

ILZ025>027-034>036-040-047-049-050-058-095>099-191400-
WEST-CENTRAL ILLINOIS

CITY           SKY/WX    TMP DP  RH WIND       PRES   REMARKS
QUINCY         FOG       66  65  96 E5        29.94R VSB<1/4
GALESBURG*     FOG       65  65 100 CALM      29.96S VSB<1/4
MACOMB*        FOG       65  65 100 CALM      29.97S VSB<1/4
JACKSONVILLE*  FOG       64  64 100 CALM      29.95S VSB 1/4
PITTSFIELD*    FOG       64  64 100 CALM      29.96S VSB<1/4
$$

ILZ028>032-037-038-041>044-048-051>054-059>061-191400-
CENTRAL ILLINOIS

CITY           SKY/WX    TMP DP  RH WIND       PRES   REMARKS
PONTIAC        FOG       64  64  97 CALM      29.97R VSB<1/4
BLOOMINGTON    CLOUDY    67  66  97 CALM      29.97R FOG
DECATUR        FOG       67  67 100 SW3       29.95S VSB 3/4
PEORIA         CLOUDY    67  67 100 CALM      29.95S FOG
LACON*         FOG       62  62 100 CALM      29.95S VSB 3/4
LINCOLN*       FOG       66  66 100 CALM      29.96R VSB 1/4
SPRINGFIELD    FOG       65  65 100 CALM      29.96R VSB<1/4
TAYLORVILLE    FOG       65  65 100 CALM      29.96S VSB<1/4
$$

ILZ033-039-045-046-055>057-062-063-191400-
EAST-CENTRAL ILLINOIS

CITY           SKY/WX    TMP DP  RH WIND       PRES   REMARKS
CHAMPAIGN      CLOUDY    68  67  96 CALM      29.95S FOG
RANTOUL*       CLOUDY    68  68  98 CALM      29.96R
MATTOON        FOG       67  67 100 CALM      29.95R VSB 1/4
PARIS*         FOG       68  68 100 CALM      29.96S VSB 1/4
$$

ILZ079-100>102-191400-
SOUTHWEST ILLINOIS

CITY           SKY/WX    TMP DP  RH WIND       PRES   REMARKS
ALTON          FOG       64  64 100 CALM      29.96R VSB 1/4
CAHOKIA*       MOSUNNY   68  67  96 CALM      29.96R FOG
SPARTA*        FOG       67  67 100 CALM      29.98R VSB<1/4
$$

ILZ064>066-069>071-074>076-080>082-084>086-088>090-092>094-191400-
SOUTH-CENTRAL ILLINOIS

CITY           SKY/WX    TMP DP  RH WIND       PRES   REMARKS
CARBONDALE     PTSUNNY   67  67 100 CALM      29.96R FOG
CAIRO*         CLOUDY    68  68 100 CALM      29.95S FOG
EFFINGHAM*     FOG       68  68 100 CALM      29.98R VSB 3/4
MARION         MOSUNNY   68  68 100 N5        29.97S
MT. VERNON     FOG       68  68 100 CALM      29.97R VSB 1/4
CENTRALIA*     MOSUNNY   70  70 100 CALM      29.96R FOG
SALEM*         MOSUNNY   70  68  95 CALM      29.96R FOG
METROPOLIS*    CLOUDY    70  69  96 CALM      29.97F
$$

ILZ067-068-072-073-078-083-087-091-191400-
SOUTHEAST ILLINOIS

CITY           SKY/WX    TMP DP  RH WIND       PRES   REMARKS
LAWRENCEVILLE  CLOUDY    69  69 100 CALM      29.97R FOG
FLORA*         FOG       69  68  98 SE3       29.99S VSB 1/2
FAIRFIELD*     CLOUDY    70  70 100 CALM      29.96R THUNDER FOG
HARRISBURG*    PTSUNNY   70  70 100 CALM      29.97R FOG
ROBINSON*      CLOUDY    66  66 100 CALM      29.97R FOG
CARMI*         CLOUDY    69  69 100 CALM      29.96S FOG
$$

ABBREVIATIONS USED IN REMARKS
   TC - TEMPERATURE IN CELSIUS
  WCI - WIND CHILL INDEX
   HX - HEAT INDEX
  VSB - VISIBILITY
$$





USA.gov is the U.S. government's official web portal to all federal, state and local government web resources and services.